Regional Weather Roundup
Issued by NWS

Home | Current Version | Previous Version | Graphics & Text | Print | Product List | Glossary On
Versions: 1 2 3 4 5 6 7 8 9 10 11 12 13 14 15 16 17 18 19 20 21 22 23 24 25 26 27
000
ASUS45 KBOU 221507
RWRCO

WEATHER ROUNDUP FOR COLORADO
NATIONAL WEATHER SERVICE DENVER/BOULDER CO
900 AM MDT MON MAY 22 2017

NOTE: "FAIR" INDICATES FEW OR NO CLOUDS BELOW 12000 FEET WITH NO
SIGNIFICANT WEATHER AND/OR OBSTRUCTIONS TO VISIBILITY.

COZ001>005-013-030-031-221600-
...NORTHWEST COLORADO...

CITY           SKY/WX    TMP DP  RH WIND       PRES   REMARKS
CRAIG          FAIR      45  39  79 CALM      30.30F
HAYDEN         FAIR      43  34  70 CALM      30.30S
MEEKER         FAIR      45  39  79 CALM      30.30S
RABBIT EARS PA FAIR      32  30  93 W8        30.35S WCI  25
STEAMBOAT SPGS FAIR      41  35  80 W5        30.29F
WALDEN           N/A     37  32  81 W5        30.32F
$$

COZ006>008-011-221600-
...WEST CENTRAL VALLEYS...

CITY           SKY/WX    TMP DP  RH WIND       PRES   REMARKS
GRAND JUNCTION FAIR      58  42  55 W6        30.24R
MONTROSE       FAIR      52  41  66 N3        30.27S
EAGLE          MOSUNNY   46  37  71 CALM      30.30F
RIFLE          FAIR      53  41  63 CALM      30.26S
DELTA          FAIR      55  42  60 CALM      30.26R
NUCLA          FAIR      52  37  58 CALM      30.29S
$$

COZ017>023-064>068-221600-
...SOUTHWEST COLORADO...

CITY           SKY/WX    TMP DP  RH WIND       PRES   REMARKS
DURANGO        FAIR      52  32  46 CALM      30.21R
CORTEZ         FAIR      55  40  56 SE3       30.22S
PAGOSA SPRINGS FAIR      51  27  39 CALM      30.24S
TELLURIDE      FAIR      43  35  74 W3        30.33S
WOLF CREEK PAS FAIR      32  23  69 N7        30.42S WCI  26
$$

COZ009-010-012-014-032>034-037-058>063-221600-
...CENTRAL COLORADO...

CITY           SKY/WX    TMP DP  RH WIND       PRES   REMARKS
ASPEN          FAIR      45  38  76 CALM      30.29R
BUENA VISTA    FAIR      46  36  69 SE5       30.27F
COPPER MTN     PTSUNNY   30  25  80 NW6       30.38S WCI  24
BERTHOUD PASS  HAZE      21  10  63 NW18      30.36S VSB<1/4 WCI   6
COTTONWOOD PAS CLOUDY    41  37  87 CALM      30.32S
GUNNISON       FAIR      44  36  73 N5        30.29S
KREMMLING      FAIR      46  37  71 CALM      30.31S
LEADVILLE      FAIR      37  21  52 N13       30.31R
MONARCH PASS   CLOUDY    30  28  93 W9        30.47S WCI  22
SALIDA         FAIR      46  38  75 CALM      30.35S
SUNLIGHT       PTSUNNY   32  30  93 CALM      30.41S
WILKERSON PASS FAIR      32  30  93 N8        30.37R WCI  25
$$

COZ069>075-221600-
...SAN LUIS VALLEY/SANGRE DE CRISTO MOUNTAINS...

CITY           SKY/WX    TMP DP  RH WIND       PRES   REMARKS
ALAMOSA        FAIR      51  35  54 VRB6      30.23S
DEL NORTE      FAIR      49  28  43 CALM      30.25F
LA VETA PASS   SNOW      32  32 100 NE6       30.42R VSB<1/4 WCI  26
SAGUACHE       FAIR      50  32  50 NW16      30.25F
$$

COZ035-036-038>040-221600-
...NORTHERN COLORADO FRONT RANGE...

CITY           SKY/WX    TMP DP  RH WIND       PRES   REMARKS
DENVER INTL AP FAIR      55  42  61 W8        30.18F
DMNS CITY PARK   N/A     58  40  51 W5G10     30.18F
AURORA         MOSUNNY   53  40  62 NW7       30.20S
FRONT RANGE AP MOSUNNY   55  46  71 W7        30.20S
ERIE MUNI ARPT FAIR      56  37  49 CALM      30.18S
BOULDER MUN AP FAIR      55  37  50 SE3       30.18S
CENTENNIAL     FAIR      53  39  59 W6        30.20S
BROOMFIELD     MOSUNNY   55  39  54 CALM      30.20S
FORT COLLINS   FAIR      55  38  52 S6        30.17F
LONGMONT       FAIR      58  42  53 CALM      30.19F
$$

COZ041-046-047-076>085-087-088-221600-
...PIKES PEAK/PALMER DIVIDE AND SOUTHERN FOOTHILLS...

CITY           SKY/WX    TMP DP  RH WIND       PRES   REMARKS
COLO. SPRINGS  FAIR      53  40  61 W6        30.22S
A. F. ACADEMY  FAIR      51  37  59 N7        30.21S
SCHRIEVER AFB  FAIR      50  39  67 NW8G17    30.22S
CHEYENNE MTN   FAIR      48  40  74 NE8       30.18S
ELLICOTT       FAIR     N/A N/A N/A NW6       30.21S
FALCON         FAIR      51  36  56 NW9       30.24S
FORT CARSON    FAIR      52  42  71 S7        30.21S
LIMON          FAIR      54  43  66 N9        30.18S
MONUMENT HILL  FAIR      46  36  66 NW8       30.25R
CANON CITY     NOT AVBL
WALSENBURG     CLOUDY    46  45  93 N5        30.25S
TRINIDAD       CLOUDY    47  42  83 N10       30.24R
$$

COZ042>045-048>051-090-091-221600-
...NORTHEAST COLORADO...

CITY           SKY/WX    TMP DP  RH WIND       PRES   REMARKS
GREELEY ARPT   FAIR      56  44  64 SW6       30.17F
AKRON          FAIR      53  45  74 W14       30.14S
BURLINGTON     FAIR      55  49  80 NW14      30.13R
WRAY           FAIR      61  46  59 W12       30.11S
YUMA           FAIR      55  39  54 W14       30.12F
STERLING       FAIR      59  45  58 W9        30.11F
HOLYOKE        NOT AVBL
FORT MORGAN    FAIR      54  47  77 W10       30.16S
$$

COZ086-089-092>099-221600-
...SOUTHEAST COLORADO...

CITY           SKY/WX    TMP DP  RH WIND       PRES   REMARKS
PUEBLO         CLOUDY    51  45  79 SW7       30.20F
LA JUNTA       LGT RAIN  49  45  86 N5        30.19F
LAMAR          CLOUDY    53  49  86 W9        30.15R
SPRINGFIELD      N/A     56  47  71 NW7       30.14S
$$




USA.gov is the U.S. government's official web portal to all federal, state and local government web resources and services.